Wind_Speed
25 27 31 36 39 41 43 45 45 45 46 47 48 48 49 49 49 48 48 48 48 48 48 47 46 46 47 46 46 47 47 47 46 45 44 43 43 42 42 42 42 41 41
23 25 28 30 34 37 38 40 42 42 42 43 45 45 46 47 47 47 47 48 49 49 48 47 47 47 47 47 47 48 48 47 47 46 45 44 43 43 43 43 42 41 42
19 21 23 26 29 32 34 37 38 40 41 42 42 44 45 46 46 46 47 47 48 49 49 48 48 48 48 48 49 48 48 47 47 46 46 45 44 43 43 42 42 42 42
18 20 21 23 25 28 32 34 36 38 39 40 42 44 46 47 46 46 46 47 48 48 48 49 49 49 49 49 49 49 49 47 46 45 44 44 45 44 43 43 43 43 43
17 20 21 22 23 26 29 31 35 36 38 39 41 44 46 46 46 46 47 47 48 49 49 48 49 49 48 48 48 47 48 47 45 44 43 44 44 44 43 43 43 43 43
19 20 21 22 23 24 26 27 30 33 36 38 39 42 44 45 45 45 46 46 47 48 48 48 47 47 47 47 46 46 47 46 45 45 44 44 45 45 44 44 44 44 44
19 20 21 22 24 26 28 29 31 32 34 36 39 41 42 43 44 45 45 46 45 46 47 47 46 46 46 46 46 47 47 46 46 45 44 44 45 45 44 43 43 43 43
22 23 24 24 26 28 30 31 33 34 35 35 37 39 41 42 43 44 45 45 44 44 45 45 45 45 45 46 45 45 46 45 45 45 44 44 45 43 42 43 43 43 42
24 25 26 28 29 30 31 32 33 35 36 36 38 40 42 43 45 45 45 45 45 45 44 45 46 46 46 46 45 44 44 44 44 44 44 45 44 44 43 44 43 43 42
25 26 28 29 30 31 32 32 34 35 37 37 38 39 41 43 44 45 46 46 46 45 45 45 45 46 46 46 46 45 45 45 45 45 44 44 44 44 43 43 43 42 42
26 26 27 28 29 30 31 32 34 35 36 37 39 40 40 42 43 44 45 45 45 45 45 45 45 46 45 45 46 46 46 45 45 45 45 43 43 43 42 42 41 41 41
26 26 27 28 30 31 32 34 35 35 34 35 37 38 40 41 42 43 44 45 46 46 46 46 45 44 44 45 46 46 45 45 45 44 44 43 42 42 42 41 41 41 40
26 27 28 29 29 31 32 34 35 36 36 36 36 38 40 41 41 43 42 43 45 45 45 45 44 43 44 45 45 44 44 44 44 43 42 42 42 42 41 40 40 39 39
26 26 26 28 30 31 32 32 33 35 35 35 36 38 39 40 41 41 41 42 43 44 44 44 44 44 43 42 42 42 42 42 42 41 41 41 41 41 40 40 39 39 38
28 28 28 29 30 31 32 33 34 34 35 35 35 37 38 39 39 39 39 41 42 42 42 43 43 43 43 43 43 42 41 41 40 39 39 39 40 39 39 38 38 38 37
30 30 30 31 31 32 33 34 34 35 35 35 36 36 37 38 39 39 40 40 41 41 41 42 43 43 42 42 42 41 41 40 39 38 38 38 38 38 38 38 38 37 37
32 32 33 32 32 32 32 33 34 35 35 36 37 37 37 38 38 39 40 41 40 40 41 41 41 41 41 41 41 40 40 39 40 39 39 38 38 38 38 38 38 37 36
35 35 35 35 35 34 33 34 34 35 36 36 37 38 39 39 39 39 39 40 40 40 40 40 41 41 40 40 40 40 40 39 39 39 39 39 39 39 38 38 37 37 36
36 36 36 36 36 35 35 35 36 36 37 36 37 38 38 39 39 39 38 38 39 39 39 39 40 40 39 39 39 40 40 39 39 39 39 39 39 39 38 38 37 36 36
37 37 37 36 36 36 36 36 36 36 37 37 37 37 37 38 38 38 38 38 38 38 38 38 39 39 40 40 39 39 39 39 40 40 39 39 39 39 39 38 37 37 36
39 38 37 37 37 36 36 36 36 36 36 35 36 36 37 37 37 37 38 38 38 38 39 40 40 40 41 40 40 40 39 40 40 40 40 39 39 39 38 38 37 37 36
40 39 38 37 36 36 35 35 35 35 35 35 35 35 35 36 36 37 37 37 38 38 39 39 40 40 41 41 40 40 39 38 38 38 39 39 38 38 38 37 37 37 36
40 39 38 36 36 35 35 35 35 34 34 34 34 34 34 34 35 35 36 36 36 37 37 38 39 39 39 40 40 39 38 38 38 38 38 38 38 38 38 38 38 37 37
39 38 37 35 35 34 34 34 33 33 33 33 34 34 34 34 34 34 34 34 34 35 36 37 38 38 39 39 40 40 39 39 39 38 38 37 37 37 37 37 37 37 37
38 37 36 35 34 33 33 32 32 31 31 32 32 32 32 33 33 33 34 34 34 34 34 35 36 37 37 38 38 38 38 38 38 38 38 37 37 37 36 36 36 37 37
37 36 35 34 33 32 32 31 31 30 30 30 30 30 30 30 30 31 32 33 34 34 34 34 34 34 35 36 36 36 37 37 37 37 37 37 37 37 36 36 37 37 37
Wind_Direction
241 240 241 243 242 242 242 242 241 239 238 238 238 239 240 241 244 246 248 250 252 254 255 258 259 260 262 262 264 264 265 266 266 267 266 269 269 269 270 272 274 277 279
246 246 245 244 243 243 244 244 242 240 240 242 243 242 242 244 245 247 249 251 253 255 257 258 261 262 262 262 262 264 264 264 265 265 264 266 267 267 269 271 274 276 278
248 249 248 247 245 244 242 241 242 243 244 246 247 247 246 247 248 250 251 252 254 255 257 258 259 261 262 262 262 263 263 263 264 264 264 265 265 267 269 272 274 276 279
251 252 251 251 249 246 242 240 243 244 246 248 248 249 248 248 248 250 250 252 254 255 256 257 259 261 262 262 263 262 262 263 263 262 262 263 265 267 270 272 274 276 279
261 260 257 257 253 246 242 241 243 246 246 247 247 248 248 248 249 249 251 253 253 254 255 257 259 259 260 260 261 261 262 262 260 260 261 263 265 267 270 271 273 275 279
264 265 262 257 252 246 244 244 245 246 245 247 248 249 248 248 248 249 250 252 253 253 254 256 257 257 257 258 258 260 260 259 258 258 260 262 264 267 269 270 272 275 277
268 265 262 259 253 249 248 249 248 249 248 250 251 251 249 249 249 249 250 252 253 254 255 255 256 257 257 257 259 259 259 257 257 258 261 263 264 267 268 270 272 275 276
276 270 266 261 256 252 252 253 252 253 252 253 251 250 250 251 251 250 251 252 253 254 255 255 256 257 258 258 259 258 257 256 257 259 262 263 265 266 268 270 272 274 275
281 276 271 265 259 256 257 257 256 254 253 254 253 253 253 253 253 252 251 251 252 254 255 256 256 257 258 257 256 256 256 255 257 259 261 262 264 266 268 269 272 273 274
285 280 276 269 263 258 258 258 257 257 256 256 256 256 255 254 253 253 251 252 253 254 254 254 254 254 255 255 255 255 256 256 257 259 262 263 264 265 267 269 270 271 274
288 283 279 273 266 261 259 259 259 260 259 258 259 259 258 255 254 254 253 254 254 254 254 253 254 254 254 254 253 253 255 256 257 259 261 263 264 264 265 266 268 270 273
291 287 282 277 271 266 263 261 261 262 260 258 259 259 258 256 254 254 255 255 256 255 254 254 255 253 253 253 253 254 256 256 258 260 260 261 262 262 262 264 267 270 272
297 291 285 281 275 269 265 266 263 263 262 260 259 257 255 254 253 254 255 255 255 254 254 254 254 254 253 252 253 255 255 256 257 258 258 259 260 261 262 264 267 270 272
302 297 290 283 278 275 272 271 269 265 264 264 261 259 257 255 254 255 254 253 253 254 254 255 255 253 253 253 253 253 253 254 255 256 257 259 260 262 263 264 267 269 271
306 302 297 290 284 280 277 276 274 272 269 267 266 264 260 257 257 256 256 255 254 254 254 254 254 254 254 252 252 252 253 255 256 257 258 259 260 261 262 264 266 268 270
306 303 299 293 288 284 281 278 276 274 273 270 269 268 263 259 256 256 256 256 255 255 255 254 254 254 253 253 253 253 253 254 255 257 258 259 259 260 263 264 266 267 269
307 303 299 295 292 289 286 281 277 275 274 272 271 270 267 263 260 259 257 256 255 255 253 253 253 253 253 253 252 252 252 254 255 256 257 257 258 260 262 264 266 267 268
307 304 300 297 294 291 287 283 279 276 274 272 272 271 268 265 262 261 259 256 254 253 253 253 252 252 252 252 251 251 251 253 255 256 256 256 258 261 262 264 266 266 267
307 305 301 299 296 292 288 285 280 277 274 273 274 272 269 265 262 260 259 257 255 254 253 252 251 251 251 251 251 251 251 253 254 255 256 257 258 259 261 263 263 264 265
306 304 302 299 296 294 289 286 282 279 276 274 273 273 270 267 264 262 260 258 257 254 253 252 251 250 250 250 250 252 253 254 254 254 256 257 258 258 259 260 261 262 264
304 303 301 300 298 294 289 286 283 280 278 277 276 274 271 267 264 262 259 258 256 254 253 252 251 250 250 250 250 251 253 254 254 254 256 257 257 258 259 259 260 262 264
304 303 302 300 298 295 291 287 285 282 278 276 276 274 272 268 265 263 260 257 256 255 254 253 251 250 249 249 250 251 252 253 253 254 255 256 257 257 258 259 261 263 265
304 303 302 300 298 295 291 289 287 284 280 277 274 273 272 269 267 264 261 258 256 255 253 252 251 250 250 250 250 250 251 253 254 255 255 255 256 257 258 260 261 263 264
306 304 302 301 299 296 292 289 286 284 281 278 276 274 271 269 266 263 260 258 256 254 253 252 252 251 250 250 250 251 252 253 254 254 255 256 257 258 258 259 261 262 263
307 305 303 301 300 298 294 290 287 285 282 280 278 276 273 270 266 263 260 258 258 256 254 253 252 251 250 250 251 251 252 253 254 255 255 256 257 258 258 258 259 261 262
307 306 304 302 300 298 295 292 289 286 283 281 279 276 274 272 269 265 261 259 258 257 255 254 253 252 250 249 250 251 251 252 254 254 254 255 256 257 257 258 259 261 262
Height
5643 5647 5651 5654 5658 5661 5665 5669 5672 5676 5680 5684 5687 5691 5695 5699 5702 5704 5707 5709 5712 5714 5716 5717 5720 5721 5722 5723 5724 5725 5726 5727 5728 5729 5728 5728 5728 5727 5727 5726 5725 5724 5722
5638 5641 5644 5646 5649 5652 5655 5658 5662 5666 5669 5673 5676 5680 5683 5686 5689 5692 5694 5696 5699 5701 5703 5705 5706 5708 5709 5711 5711 5712 5713 5714 5715 5716 5716 5716 5716 5716 5716 5715 5714 5713 5712
5631 5634 5636 5638 5640 5643 5646 5650 5653 5656 5660 5663 5666 5669 5672 5674 5677 5679 5681 5683 5685 5688 5690 5692 5693 5695 5696 5697 5698 5699 5700 5701 5702 5703 5704 5704 5705 5705 5705 5704 5703 5702 5701
5625 5627 5629 5630 5632 5635 5637 5640 5643 5646 5649 5652 5654 5657 5659 5661 5663 5666 5668 5670 5673 5675 5677 5679 5680 5682 5683 5684 5685 5686 5687 5689 5690 5691 5692 5693 5693 5693 5693 5693 5693 5692 5691
5619 5620 5621 5622 5624 5626 5628 5631 5634 5636 5638 5640 5642 5644 5647 5649 5651 5653 5655 5658 5660 5662 5664 5665 5667 5668 5669 5671 5672 5674 5675 5676 5677 5679 5680 5681 5682 5682 5682 5682 5681 5680 5679
5613 5613 5613 5614 5616 5617 5619 5621 5624 5626 5627 5628 5630 5632 5634 5636 5638 5640 5643 5645 5647 5649 5651 5653 5654 5655 5656 5658 5660 5661 5662 5664 5665 5667 5668 5669 5670 5670 5670 5670 5670 5670 5669
5606 5605 5605 5606 5607 5609 5611 5612 5614 5616 5617 5618 5619 5620 5622 5624 5626 5628 5630 5633 5635 5636 5638 5640 5641 5642 5644 5645 5646 5647 5649 5650 5653 5655 5656 5657 5658 5659 5659 5659 5659 5658 5658
5598 5597 5597 5597 5598 5599 5601 5602 5604 5605 5606 5607 5608 5609 5611 5613 5614 5616 5618 5620 5622 5624 5625 5627 5629 5630 5631 5633 5634 5634 5636 5638 5641 5643 5644 5645 5646 5647 5647 5648 5648 5647 5646
5589 5588 5587 5587 5588 5589 5590 5591 5593 5594 5595 5596 5597 5598 5599 5601 5602 5604 5605 5607 5609 5611 5613 5615 5616 5618 5619 5620 5621 5623 5625 5627 5629 5630 5631 5633 5634 5635 5636 5636 5636 5636 5635
5581 5579 5578 5577 5577 5579 5580 5581 5582 5583 5584 5585 5585 5586 5587 5588 5590 5591 5593 5595 5597 5599 5601 5602 5604 5605 5606 5607 5609 5611 5613 5615 5616 5618 5619 5621 5622 5623 5623 5624 5625 5624 5624
5572 5570 5568 5567 5568 5568 5569 5570 5571 5572 5573 5573 5574 5574 5575 5576 5577 5579 5580 5582 5585 5587 5588 5590 5591 5592 5593 5595 5597 5599 5601 5603 5604 5606 5607 5609 5610 5611 5612 5612 5613 5613 5613
5564 5561 5559 5558 5558 5558 5559 5559 5560 5561 5561 5561 5561 5561 5562 5563 5565 5566 5568 5570 5572 5574 5575 5577 5579 5580 5581 5583 5584 5586 5589 5591 5592 5594 5596 5597 5598 5599 5600 5601 5602 5602 5602
5556 5553 5551 5550 5549 5548 5549 5549 5549 5549 5548 5548 5549 5549 5549 5551 5552 5553 5555 5556 5558 5560 5562 5564 5566 5567 5569 5570 5572 5574 5576 5579 5580 5582 5584 5586 5587 5588 5589 5590 5590 5591 5591
5549 5546 5543 5541 5540 5539 5539 5538 5537 5537 5536 5536 5536 5536 5537 5538 5539 5540 5542 5543 5545 5546 5548 5550 5552 5554 5556 5558 5560 5562 5564 5567 5569 5571 5572 5574 5575 5577 5578 5579 5579 5580 5580
5542 5538 5535 5532 5530 5528 5527 5527 5526 5525 5524 5525 5524 5524 5525 5526 5527 5528 5529 5531 5532 5533 5535 5537 5539 5541 5543 5545 5548 5550 5552 5555 5557 5559 5560 5562 5564 5565 5566 5567 5568 5569 5569
5534 5531 5527 5524 5521 5519 5517 5516 5514 5513 5512 5512 5512 5513 5513 5513 5514 5515 5517 5518 5519 5521 5523 5525 5527 5529 5531 5534 5536 5538 5541 5543 5545 5547 5549 5551 5552 5554 5555 5556 5557 5558 5558
5527 5523 5519 5515 5512 5510 5507 5505 5503 5502 5501 5501 5501 5501 5501 5501 5502 5503 5504 5506 5507 5508 5510 5513 5515 5517 5520 5522 5524 5526 5529 5531 5533 5535 5537 5539 5541 5543 5544 5545 5546 5546 5547
5518 5514 5510 5506 5503 5500 5497 5495 5493 5492 5491 5490 5489 5489 5488 5488 5489 5490 5491 5493 5495 5496 5498 5500 5503 5505 5507 5510 5512 5514 5517 5519 5521 5524 5526 5528 5529 5531 5532 5534 5535 5535 5536
5509 5505 5500 5496 5492 5489 5486 5484 5482 5481 5480 5479 5478 5477 5476 5476 5476 5477 5478 5480 5482 5484 5486 5488 5490 5493 5495 5497 5500 5503 5505 5507 5510 5512 5514 5516 5518 5519 5521 5522 5523 5524 5525
5500 5495 5491 5487 5483 5479 5475 5473 5471 5469 5468 5467 5466 5465 5464 5464 5464 5465 5466 5467 5469 5471 5473 5476 5478 5480 5483 5485 5488 5491 5493 5496 5498 5500 5502 5504 5506 5507 5509 5510 5512 5513 5514
5489 5485 5480 5476 5472 5468 5465 5462 5460 5458 5457 5455 5454 5453 5452 5452 5452 5453 5454 5455 5457 5459 5461 5463 5466 5468 5471 5473 5476 5479 5481 5484 5486 5488 5490 5492 5494 5496 5497 5499 5501 5502 5503
5478 5473 5469 5465 5461 5457 5454 5452 5449 5447 5445 5444 5443 5442 5441 5440 5440 5441 5442 5443 5445 5446 5448 5451 5453 5456 5459 5461 5464 5467 5470 5472 5474 5476 5479 5481 5482 5484 5486 5487 5489 5490 5491
5466 5462 5458 5454 5450 5446 5443 5440 5438 5436 5434 5433 5432 5431 5430 5429 5429 5430 5430 5431 5433 5435 5436 5438 5441 5444 5446 5449 5452 5455 5458 5460 5463 5465 5467 5469 5470 5472 5474 5475 5477 5478 5479
5455 5451 5447 5442 5438 5435 5432 5429 5427 5425 5423 5421 5420 5419 5419 5418 5418 5418 5419 5420 5421 5423 5424 5426 5429 5431 5434 5437 5440 5443 5446 5448 5451 5453 5455 5457 5458 5460 5461 5463 5465 5466 5467
5445 5440 5436 5432 5428 5424 5421 5419 5416 5414 5412 5410 5409 5408 5407 5407 5407 5407 5408 5409 5410 5412 5413 5415 5417 5420 5422 5425 5428 5431 5434 5436 5438 5441 5443 5444 5446 5448 5449 5451 5452 5454 5455
5434 5430 5425 5421 5417 5414 5411 5408 5406 5404 5402 5400 5399 5397 5397 5396 5396 5396 5397 5398 5399 5401 5402 5404 5406 5408 5411 5414 5417 5419 5422 5424 5426 5428 5430 5432 5434 5436 5437 5439 5441 5442 5443